Regional Weather Roundup
Issued by NWS

Home | Current Version | Previous Version | Graphics & Text | Print | Product List | Glossary On
Versions: 1 2 3 4 5 6 7 8 9 10 11 12 13 14 15 16 17 18 19 20 21 22 23 24 25 26 27 28 29 30 31 32 33 34 35 36 37 38 39 40 41 42 43 44 45 46 47 48 49 50
000
ASUS43 KFSD 191602
RWRSD

WEATHER ROUNDUP FOR SOUTH DAKOTA
NATIONAL WEATHER SERVICE SIOUX FALLS SD
1100 AM CDT TUE SEP 19 2017

NOTE: "FAIR" INDICATES FEW OR NO CLOUDS BELOW 12,000 FEET WITH NO
SIGNIFICANT WEATHER AND/OR OBSTRUCTIONS TO VISIBILITY.


SDZ001>005-009-010-012>017-191700-
NORTHWEST AND NORTH CENTRAL SOUTH DAKOTA

CITY           SKY/WX    TMP DP  RH WIND       PRES   REMARKS
BUFFALO          N/A     61  46  57 W7        29.48R
FAITH            N/A     67  51  56 SW10      29.50S
MOBRIDGE       CLOUDY    71  63  75 SE20G35   29.47F
$$

SDZ012>016-024>037-041>051-057-063-072>074-191700-
SOUTHWEST AND SOUTH CENTRAL SOUTH DAKOTA

CITY           SKY/WX    TMP DP  RH WIND       PRES   REMARKS
RAPID CTY ARPT SUNNY     63  45  51 N8        29.57R
PIERRE         CLOUDY    68  62  81 SE10      29.52S
CUSTER         CLOUDY    62  37  39 SW12G17   29.66F
ELLSWORTH AFB  CLOUDY    63  43  48 N12       29.56R
PHILIP         CLOUDY    72  59  63 S12       29.50F
PINE RIDGE     CLOUDY    66  52  60 S13       29.57S
SPEARFISH      FAIR      61  43  51 W6        29.60F
WINNER         FAIR      73  65  75 S21G26    29.55F
$$

SDZ004>011-016>023-039-040-191700-
NORTHEAST SOUTH DAKOTA

CITY           SKY/WX    TMP DP  RH WIND       PRES   REMARKS
ABERDEEN       PTSUNNY   73  64  73 SE30G37   29.62F
WATERTOWN      CLOUDY    68  65  90 SE23G30   29.70F
BROOKINGS      CLOUDY    66  64  93 SE16      29.75F
SISSETON         N/A     69  65  86 SE17G30   29.68F
$$

SDZ017-020-022-023-036>040-048>070-191700-
SOUTHEAST SOUTH DAKOTA

CITY           SKY/WX    TMP DP  RH WIND       PRES   REMARKS
SIOUX FALLS    DRIZZLE   69  67  93 S14G23    29.75F FOG
HURON          CLOUDY    68  65  90 SE24G33   29.64F
CHAMBERLAIN    CLOUDY    69  67  92 SE20G31   29.58F
MITCHELL       CLOUDY    72  65  78 SE18G29   29.66F
YANKTON        PTSUNNY   72  67  84 SE18      29.71F
$$

ABBREVIATIONS USED IN REMARKS
   TC - TEMPERATURE IN CELSIUS
  WCI - WIND CHILL INDEX
   HX - HEAT INDEX
  VSB - VISIBILITY




USA.gov is the U.S. government's official web portal to all federal, state and local government web resources and services.